カタログに戻る

STARLINK-37574

運用中通信VLEO
NORAD 69464·PAYLOAD·🇺🇸 United States

打ち上げ Jun 8, 2026 から Cape Canaveral Space Force Station

Loading…

次のパス (今後24時間)

TLE

最新Source: CelesTrak SupGP

元期: Sep 15, 2026, 03:58 UTC

1 69464C 26127X   26258.16576389 -.00030056  00000+0 -88810-3 0  2586
2 69464  53.1574 190.8425 0001322  82.8835 164.2700 15.34402861    12

AllMySatでSTARLINK-37574をリアルタイム追跡

Download on the App Store